DCJDK EDDF-LSZS

Flight info

Callsign DCJDK
Flight time N/A
Altitude 39000
Route ANEKI2L ANEKI Y163 NATOR N850 GERSA Z50 PELAD
Aircraft C25C/M-SDE2E3FGHRWXY/LB1

Departure

Time 2026-05-06 07:21
Airport Frankfurt Main Airport (EDDF)

Arrival

Time N/A
Airport Engadin Airport (LSZS)
Time Latitude Longitude Altitude Speed Heading
2026-05-06 07:13 50.02483 8.53052 1005 ft 96 kts 255°
2026-05-06 07:13 50.02537 8.53652 355 ft 0 kts 255°
2026-05-06 07:13 50.02537 8.53649 328 ft 0 kts 255°
2026-05-06 07:13 50.02537 8.53648 324 ft 2 kts 254°
2026-05-06 07:14 50.02449 8.53272 327 ft 34 kts 246°
2026-05-06 07:14 50.02381 8.53008 352 ft 27 kts 251°
2026-05-06 07:14 50.02323 8.52762 364 ft 10 kts 248°
2026-05-06 07:14 50.02319 8.52746 362 ft 0 kts 248°
2026-05-06 07:16 50.02319 8.52743 362 ft 3 kts 248°
2026-05-06 07:16 50.02318 8.52743 362 ft 0 kts 248°
2026-05-06 07:20 50.02537 8.53652 327 ft 0 kts 255°
2026-05-06 07:20 50.02277 8.52612 362 ft 0 kts 226°
2026-05-06 07:20 50.02106 8.52595 494 ft 69 kts 179°
2026-05-06 07:21 50.01495 8.52663 1296 ft 104 kts 174°
2026-05-06 07:21 50.00733 8.52977 2066 ft 129 kts 133°
2026-05-06 07:21 50.00333 8.54467 2272 ft 158 kts 110°
2026-05-06 07:21 49.99996 8.56009 3058 ft 150 kts 108°
2026-05-06 07:22 49.99694 8.57625 3525 ft 165 kts 105°
2026-05-06 07:22 49.99382 8.59442 3600 ft 174 kts 112°
2026-05-06 07:22 49.98720 8.61043 3753 ft 173 kts 126°
2026-05-06 07:22 49.98199 8.62247 5000 ft 143 kts 124°
2026-05-06 07:23 49.97598 8.63632 4920 ft 136 kts 125°
2026-05-06 07:23 49.97152 8.64701 4822 ft 113 kts 123°
2026-05-06 07:23 49.96667 8.65901 4568 ft 140 kts 123°
2026-05-06 07:23 49.96163 8.67124 4026 ft 126 kts 123°
2026-05-06 07:24 49.95763 8.68103 3996 ft 92 kts 123°
2026-05-06 07:24 49.95355 8.69126 3996 ft 132 kts 122°
2026-05-06 07:24 49.94845 8.70418 4008 ft 146 kts 120°
2026-05-06 07:24 49.94356 8.71827 4010 ft 150 kts 119°
2026-05-06 07:25 49.93856 8.73262 4005 ft 151 kts 118°
2026-05-06 07:25 49.93353 8.74702 4013 ft 152 kts 119°
2026-05-06 07:25 49.92839 8.76152 4005 ft 152 kts 122°
2026-05-06 07:25 49.92154 8.77365 4002 ft 151 kts 143°
2026-05-06 07:26 49.91272 8.78259 4001 ft 151 kts 148°
2026-05-06 07:26 49.90385 8.79149 4008 ft 151 kts 148°
2026-05-06 07:26 49.89508 8.80027 3999 ft 151 kts 148°
2026-05-06 07:26 49.88631 8.80903 4007 ft 151 kts 148°
2026-05-06 07:27 49.87741 8.81790 4001 ft 152 kts 148°
2026-05-06 07:27 49.86869 8.82658 3544 ft 141 kts 148°
2026-05-06 07:27 49.86430 8.83521 3133 ft 70 kts 119°
2026-05-06 07:27 49.86282 8.84557 1985 ft 109 kts 121°
2026-05-06 07:28 49.86004 8.85317 1335 ft 75 kts 195°
2026-05-06 07:28 49.85498 8.85386 710 ft 75 kts 200°
2026-05-06 07:28 49.84845 8.85376 640 ft 40 kts 189°
2026-05-06 07:29 49.84559 8.85300 589 ft 39 kts 195°
2026-05-06 07:29 49.84273 8.85192 506 ft 35 kts 202°
2026-05-06 07:29 49.84212 8.85154 509 ft 0 kts 201°
2026-05-06 07:29 49.84065 8.85072 815 ft 30 kts 200°
2026-05-06 07:30 49.83863 8.85006 1351 ft 33 kts 188°
2026-05-06 07:30 49.83480 8.85141 953 ft 71 kts 145°
2026-05-06 07:30 49.83087 8.85234 758 ft 67 kts 270°
2026-05-06 07:30 49.83436 8.84885 588 ft 66 kts 30°
2026-05-06 07:31 49.83825 8.85032 519 ft 47 kts 13°
2026-05-06 07:31 49.84073 8.85117 512 ft 30 kts
2026-05-06 07:31 49.84253 8.85140 507 ft 23 kts 357°
2026-05-06 07:31 49.84307 8.85120 506 ft 0 kts 341°